Location: Di�la
(15.2430°N, 12.8989°W)
Time: 00:23:51
(UTC+00:00)

Daily predictions for brighter satellites

Satellite Brightness Start Highest point End
(mag) Time Altitude Azimuth Time Altitude Azimuth Time Altitude Azimuth
CZ-3A R/B 4.0 04:22:40 80° NNE 04:22:40 80° NNE 04:34:09 10° ESE
Ariane H10 4.4 04:53:34 35° S 04:54:19 35° S 05:04:45 10° ESE
SL-16 R/B 2.7 05:02:27 10° S 05:07:59 57° ESE 05:13:29 10° NNE
NOSS 3-2 (C) 3.8 05:09:54 47° NE 05:09:54 47° NE 05:14:00 10° NNE
CENTAUR R/B 2.7 05:17:07 49° NNE 05:17:07 49° NNE 05:21:26 10° NNE
Cosmos 2278 Rocket 3.9 05:18:36 11° NNE 05:23:19 29° ENE 05:28:10 10° SE
H-2A R/B 3.2 05:19:51 10° SE 05:24:02 42° ENE 05:25:22 33° NE
Cosmos 990 Rocket 3.9 05:30:27 67° NNE 05:31:04 79° ENE 05:36:13 10° SSE
Intelsat 5-3 Rocket 4.1 05:34:44 48° W 05:37:09 82° NNW 05:54:28 10° ENE
USA 238 DEB 4.3 05:51:23 32° NW 05:51:23 32° NW 05:55:58 10° N
USA 238 4.2 05:51:23 32° NW 05:51:23 32° NW 05:56:06 10° N
MINOTAUR IV R/B 4.5 05:47:46 10° SSW 05:52:20 82° WNW 05:56:56 10° NNE
GPS 2-04 Rocket1 2.5 05:52:52 74° WNW 05:53:12 85° SW 05:57:21 10° SE
deb Chang Zheng 4 3.3 05:55:32 10° N 05:59:44 76° WNW 06:03:56 10° SSW
Cosmos 858 Rocket 4.4 05:57:21 15° NNW 06:01:40 90° WSW 06:06:50 10° SSE
Okean 1-7 Rocket 3.5 06:03:21 22° NNW 06:06:02 60° W 06:10:22 10° S
ATLAS 3B CENTAUR R/B 4.3 06:04:32 20° WSW 06:10:06 37° SSW 06:24:50 10° SE
Meteor 1-21 Rocket 4.3 06:05:59 10° N 06:11:51 88° W 06:17:46 10° S
Atlas Centaur 2 4.1 06:09:26 16° NW 06:14:05 29° NNE 06:21:03 10° ENE
Meteor 2-13 Rocket 4.4 06:08:19 10° N 06:14:28 83° W 06:20:34 10° S
GPS 2-15 Rocket1 4.3 06:12:35 11° SW 06:16:50 40° SSE 06:21:25 10° E
Lacrosse 5 rocket 3.3 06:17:07 10° N 06:19:58 21° NE 06:22:46 10° ESE
Cosmos 1898 Rocket 4.2 06:18:32 22° WNW 06:20:51 32° W 06:25:26 10° SSW
CZ-3A R/B 4.0 06:12:32 20° W 06:22:08 57° SSW 06:30:58 10° SE
Cosmos 1340 2.8 06:19:13 10° N 06:22:58 76° E 06:26:43 10° S
CZ-4B R/B 1.3 06:22:13 10° S 06:25:35 81° W 06:28:59 10° NNW
SJ-7 4.3 06:22:43 10° N 06:26:46 86° W 06:30:45 10° SSW
YAOGAN 6 2.6 06:23:42 10° NNE 06:27:22 87° E 06:31:01 10° S
Aurora 2 Rocket 4.0 06:25:29 16° NW 06:28:04 27° NNE 06:32:44 10° ENE
Cosmos 1602 Rocket 3.7 06:23:53 10° N 06:28:21 79° E 06:32:49 10° S
Cosmos 372 Rocket 4.0 06:23:50 10° NNW 06:29:03 83° E 06:34:13 10° SSE
Cosmos 1328 4.0 06:27:53 10° N 06:31:47 71° E 06:35:39 10° S
Cosmos 1092 Rocket 4.2 06:26:01 10° N 06:32:13 77° E 06:38:27 10° S
Chandra Rocket (1) 3.9 06:35:10 10° NW 06:37:22 13° N 06:38:59 10° NNE
CZ-4B DEB 4.4 06:32:42 10° NNE 06:38:15 79° ESE 06:43:45 10° S
PSLV R/B 3.8 06:34:17 10° N 06:38:21 80° WNW 06:42:27 10° SSW
COSMO-SKYMED 1 2.6 06:35:58 10° S 06:40:15 61° W 06:44:31 10° NNW
Nadezhda 4 Rocket 4.3 06:36:44 10° NNW 06:42:28 43° W 06:48:14 10° SSW
Cosmos 1634 Rocket 4.2 06:36:54 10° SSW 06:42:47 48° W 06:48:40 10° NNW
Cosmos 2098 Rocket 4.3 06:39:00 10° NNE 06:43:05 40° E 06:46:25 10° SSE
Cosmos 44 Rocket 3.9 06:38:37 10° NW 06:43:29 42° WSW 06:48:15 10° S
Okean O Rocket 3.5 06:39:50 10° NE 06:43:46 34° E 06:47:41 10° SSE
Cosmos 2228 3.2 06:41:41 10° SSW 06:45:47 47° W 06:49:52 10° N
Cosmos 1937 Rocket 4.5 06:41:42 10° NW 06:45:55 25° W 06:50:06 10° SSW
SMAP 3.8 06:41:24 10° NNE 06:45:58 59° E 06:50:33 10° S
GPS 2-18 Rocket1 4.1 06:43:52 12° WNW 06:47:03 34° N 06:50:35 10° ENE
H-2A R/B 3.0 06:45:40 10° NNE 06:50:08 70° ESE 06:54:29 10° S
ERS-2 2.0 06:46:57 10° S 06:50:35 76° WSW 06:54:12 10° NNW
SL-16 R/B 3.9 06:51:09 10° WNW 06:52:10 10° WNW 06:53:11 10° WNW
Cosmos 2298 Rocket 4.4 06:47:49 10° N 06:53:07 72° ENE 06:58:24 10° SSE
Envisat 3.3 06:49:57 10° N 06:54:43 42° WNW 06:59:29 10° SW
USA 267 3.4 06:48:32 10° SSE 06:54:58 61° SW 07:01:24 10° NW
CZ-4B R/B 4.5 06:53:06 10° NW 06:55:03 14° WNW 06:57:01 10° WSW
Cosmos 1943 3.2 06:50:50 10° SSW 06:56:28 66° WNW 07:02:07 10° N
GPS 2-17 Rocket1 3.0 06:52:51 10° WNW 06:57:14 79° SSW 07:01:43 10° ESE
CZ-3C R/B 1.0 06:56:49 10° WNW 06:59:05 25° N 07:00:48 10° ENE
